Portada
METAR-TAF:

METAR-TAF

Aeroports :

Aeroport de Sania Ramel

Tetuan, Marroc

latitud: 35-35N, longitud: 005-20W, altitud: 10 m

Observació

L'informe es va fer fa 46 minuts, a les 18:00 UTC
Vent 14 kt del Oest, variant entre Sud-Oest i Oest/Nord-Oest
Temperatura 15°C
Humitat 55%
Pressió 1007 hPa
Visibilitat 10 km o més
Cel ennuvolat a una alçada de 2600 ft
Núvols disperses a una alçada de 20000 ft

METAR: GMTN 231800Z 27014KT 230V290 9999 BKN026 SCT200 15/06 Q1007 NOSIG

Hora: 19:46 (18:46 UTC)


TAF: manca

Observacions i pronòstics meteorològics de més de 4000 aeroports (METAR i TAF).

Les estacions disponibles són els punts grocs i vermells al mapa.

Posi el ratolí al punt desitjat per veure el nom de l'estació.

Feu clic per veure les observacions i els pronòstics meteorològics.

Per canviar el mapa: feu clic els botons verds amb una creu de color negre per apropar; al botó verd amb un guió per allunyar la imatge; o en les fletxes verdes per a mapes adjacents.


METAR-TAF: